Weather History for KWWR - October, 2012

Change the Weather History Date:

Tuesday, October 23, 2012

  Actual Average (KGAG) Record (KGAG)
Temperature  
Mean Temperature 80 °F -  
Max Temperature 95 °F 70 °F 95 °F (2012)
Min Temperature 64 °F 42 °F 27 °F (2005)
Cooling Degree Days 14    
Growing Degree Days 30 (Base 50)    
Moisture  
Dew Point 50 °F    
Average Humidity 50    
Maximum Humidity 94    
Minimum Humidity 9    
Precipitation  
Precipitation 0.00 in - - ()
Sea Level Pressure  
Sea Level Pressure 29.78 in    
Wind  
Wind Speed 18 mph (SSW)    
Max Wind Speed 25 mph    
Max Gust Speed 32 mph    
Visibility 10 miles    
Events      
Averages and records for this station are not official NWS values.
T = Trace of Precipitation, MM = Missing Value Source: NWS Daily Summary

Daily Weather History Graph

Daily Weather History Graph

Search for Another Location

Airport or City:

Trip Planner

Search our weather history database for the weather conditions in past years. The results will help you decide how hot, cold, wet, or windy it might be!

Date:

Astronomy

Oct. 23, 2012 Rise Set
Actual Time 7:53 AM CDT 6:51 PM CDT
Civil Twilight 7:26 AM CDT 7:17 PM CDT
Nautical Twilight 6:56 AM CDT 7:47 PM CDT
Astronomical Twilight 6:26 AM CDT 8:17 PM CDT
Moon 3:26 PM CDT (10/23) 1:56 AM CDT (10/23)
Length of Visible Light 11h 50m
Length of Day
10h 57m
Waxing Gibbous, 67% of the Moon is Illuminated
Oct 23
Waxing Gibbous
Oct 29
Full
Nov 6
Last Quarter
Nov 13
New
Nov 20
First Quarter

Hourly Weather History & Observations

Time (CDT) Temp. Heat Index Dew Point Humidity Pressure Visibility Wind Dir Wind Speed Gust Speed Precip Events Conditions
12:15 AM 68.0 °F - 62.6 °F 83% 29.82 in 10.0 mi South 21.9 mph 28.8 mph N/A   Clear
12:35 AM 68.0 °F - 62.6 °F 83% 29.81 in 10.0 mi South 19.6 mph 27.6 mph N/A   Clear
12:55 AM 68.0 °F - 62.6 °F 83% 29.81 in 10.0 mi South 19.6 mph 28.8 mph N/A   Clear
1:35 AM 68.0 °F - 62.6 °F 83% 29.80 in 10.0 mi South 20.7 mph 26.5 mph N/A   Clear
1:55 AM 68.0 °F - 62.6 °F 83% 29.80 in 10.0 mi South 18.4 mph 27.6 mph N/A   Clear
2:15 AM 68.0 °F - 62.6 °F 83% 29.80 in 10.0 mi South 16.1 mph 21.9 mph N/A   Clear
2:55 AM 68.0 °F - 62.6 °F 83% 29.79 in 10.0 mi South 12.7 mph 20.7 mph N/A   Clear
3:15 AM 68.0 °F - 62.6 °F 83% 29.79 in 10.0 mi South 13.8 mph 17.3 mph N/A   Clear
3:35 AM 66.2 °F - 62.6 °F 88% 29.79 in 10.0 mi South 12.7 mph 18.4 mph N/A   Clear
3:55 AM 66.2 °F - 62.6 °F 88% 29.79 in 10.0 mi South 12.7 mph 19.6 mph N/A   Clear
4:15 AM 66.2 °F - 62.6 °F 88% 29.78 in 10.0 mi South 13.8 mph 18.4 mph N/A   Clear
5:15 AM 66.2 °F - 62.6 °F 88% 29.78 in 10.0 mi South 17.3 mph - N/A   Clear
5:35 AM 66.2 °F - 62.6 °F 88% 29.78 in 7.0 mi South 15.0 mph 23.0 mph N/A   Clear
5:55 AM 66.2 °F - 62.6 °F 88% 29.78 in 7.0 mi South 12.7 mph 20.7 mph N/A   Clear
6:35 AM 64.4 °F - 62.6 °F 94% 29.79 in 7.0 mi SSW 13.8 mph 18.4 mph N/A   Clear
6:55 AM 64.4 °F - 62.6 °F 94% 29.79 in 7.0 mi South 13.8 mph 23.0 mph N/A   Clear
7:35 AM 64.4 °F - 60.8 °F 88% 29.79 in 7.0 mi South 16.1 mph 23.0 mph N/A   Clear
7:55 AM 64.4 °F - 60.8 °F 88% 29.79 in 7.0 mi South 17.3 mph - N/A   Clear
8:15 AM 64.4 °F - 60.8 °F 88% 29.80 in 7.0 mi South 16.1 mph 20.7 mph N/A   Clear
8:35 AM 64.4 °F - 60.8 °F 88% 29.81 in 7.0 mi SSW 15.0 mph 23.0 mph N/A   Clear
9:15 AM 68.0 °F - 60.8 °F 78% 29.81 in 10.0 mi SSW 20.7 mph 26.5 mph N/A   Clear
10:15 AM 71.6 °F - 59.0 °F 64% 29.81 in 10.0 mi SSW 20.7 mph 28.8 mph N/A   Clear
10:55 AM 75.2 °F - 55.4 °F 50% 29.81 in 10.0 mi SSW 19.6 mph 29.9 mph N/A   Clear
11:15 AM 77.0 °F - 51.8 °F 41% 29.81 in 10.0 mi SSW 18.4 mph 26.5 mph N/A   Clear
11:35 AM 78.8 °F - 48.2 °F 34% 29.81 in 10.0 mi SW 20.7 mph 27.6 mph N/A   Clear
11:55 AM 80.6 °F - 42.8 °F 26% 29.81 in 10.0 mi SW 18.4 mph 28.8 mph N/A   Clear
12:15 PM 82.4 °F - 42.8 °F 25% 29.81 in 10.0 mi SW 18.4 mph 25.3 mph N/A   Clear
12:35 PM 82.4 °F - 41.0 °F 23% 29.81 in 10.0 mi SW 18.4 mph 24.2 mph N/A   Clear
12:55 PM 84.2 °F - 39.2 °F 20% 29.80 in 10.0 mi SW 16.1 mph - N/A   Clear
1:15 PM 86.0 °F - 35.6 °F 17% 29.80 in 10.0 mi WSW 16.1 mph 21.9 mph N/A   Clear
1:35 PM 87.8 °F - 33.8 °F 15% 29.79 in 10.0 mi WSW 16.1 mph 21.9 mph N/A   Clear
1:55 PM 87.8 °F - 33.8 °F 15% 29.78 in 10.0 mi SW 12.7 mph 21.9 mph N/A   Clear
2:35 PM 91.4 °F - 32.0 °F 12% 29.77 in 10.0 mi SW 15.0 mph 20.7 mph N/A   Clear
2:55 PM 91.4 °F - 32.0 °F 12% 29.76 in 10.0 mi SW 17.3 mph 23.0 mph N/A   Clear
3:15 PM 91.4 °F - 32.0 °F 12% 29.75 in 10.0 mi WSW 11.5 mph 17.3 mph N/A   Clear
3:35 PM 93.2 °F - 32.0 °F 11% 29.75 in 10.0 mi SSW 12.7 mph - N/A   Clear
3:55 PM 95.0 °F - 32.0 °F 11% 29.74 in 10.0 mi SSW 12.7 mph 17.3 mph N/A   Clear
4:15 PM 95.0 °F - 30.2 °F 10% 29.74 in 10.0 mi SSW 16.1 mph - N/A   Clear
4:35 PM 95.0 °F - 26.6 °F 9% 29.74 in 10.0 mi SW 15.0 mph 23.0 mph N/A   Clear
4:55 PM 95.0 °F - 26.6 °F 9% 29.74 in 10.0 mi SW 20.7 mph - N/A   Clear
5:15 PM 93.2 °F - 28.4 °F 10% 29.74 in 10.0 mi WSW 15.0 mph 21.9 mph N/A   Clear
5:35 PM 91.4 °F - 32.0 °F 12% 29.74 in 10.0 mi SSW 16.1 mph 21.9 mph N/A   Clear
5:55 PM 89.6 °F - 32.0 °F 13% 29.74 in 10.0 mi SSW 17.3 mph 25.3 mph N/A   Clear
6:15 PM 87.8 °F - 32.0 °F 14% 29.75 in 10.0 mi SSW 15.0 mph 19.6 mph N/A   Clear
6:35 PM 86.0 °F - 35.6 °F 17% 29.75 in 10.0 mi South 13.8 mph - N/A   Clear
6:55 PM 82.4 °F - 37.4 °F 20% 29.76 in 10.0 mi South 11.5 mph - N/A   Clear
7:15 PM 82.4 °F - 37.4 °F 20% 29.76 in 10.0 mi South 15.0 mph 19.6 mph N/A   Clear
7:35 PM 82.4 °F - 42.8 °F 25% 29.76 in 10.0 mi South 18.4 mph 24.2 mph N/A   Clear
7:55 PM 82.4 °F 81.4 °F 53.6 °F 37% 29.76 in 10.0 mi South 21.9 mph 28.8 mph N/A   Clear
8:15 PM 82.4 °F 81.4 °F 53.6 °F 37% 29.77 in 10.0 mi South 24.2 mph 29.9 mph N/A   Clear
8:35 PM 80.6 °F 80.3 °F 53.6 °F 39% 29.78 in 10.0 mi South 24.2 mph 29.9 mph N/A   Clear
8:55 PM 80.6 °F 80.3 °F 53.6 °F 39% 29.78 in 10.0 mi South 21.9 mph 27.6 mph N/A   Clear
9:15 PM 78.8 °F - 55.4 °F 44% 29.79 in 10.0 mi South 23.0 mph 29.9 mph N/A   Clear
9:35 PM 78.8 °F - 57.2 °F 47% 29.80 in 10.0 mi South 23.0 mph 31.1 mph N/A   Clear
9:55 PM 77.0 °F - 60.8 °F 57% 29.79 in 10.0 mi South 25.3 mph 31.1 mph N/A   Clear
10:15 PM 77.0 °F - 62.6 °F 61% 29.80 in 10.0 mi South 21.9 mph 32.2 mph N/A   Clear
10:35 PM 77.0 °F - 62.6 °F 61% 29.80 in 10.0 mi South 25.3 mph 32.2 mph N/A   Clear
10:55 PM 75.2 °F - 62.6 °F 65% 29.81 in 10.0 mi South 21.9 mph 29.9 mph N/A   Clear
11:15 PM 75.2 °F - 62.6 °F 65% 29.81 in 10.0 mi South 24.2 mph 31.1 mph N/A   Clear
11:35 PM 73.4 °F - 62.6 °F 69% 29.81 in 10.0 mi South 23.0 mph 29.9 mph N/A   Clear
11:55 PM 73.4 °F - 62.6 °F 69% 29.81 in 10.0 mi South 19.6 mph 28.8 mph N/A   Clear